YM Kaohsiung — MCGF6 — position and weather

sailwx.info

Track history (hours):
 
Tides and Currents Weather Stations Pressure Air Temp Water Temp Dewpoint Dewpoint Depression Visibility Wind Speed Wind Dir Waves Ship Positions

YM Kaohsiung

Last reported at 2014-Oct-31 10:16 UTC. Time now 2014-Nov-01 10:31 UTC.
Position N 30°30' E 122°35'.

Length 260 m; draft 8.5 m.

Type: Cargo ship. MMSI: 235767000.

Date/timePositionNaut miles runAvg speedWind from/ knotsBaromVisibWave heightAir tempDewpointWater temp
2014-Oct-31 10:16N 30°30' E 122°35'2111.8
2014-Oct-31 08:26N 30°20' E 122°57'2713.1
2014-Oct-31 06:22N 29°53' E 122°57'1214.7
2014-Oct-31 05:32N 29°41' E 122°54'36712.6
2014-Oct-30 00:27N 24°08' E 119°59'4113.3
2014-Oct-29 21:20N 23°27' E 119°54'5213.7
2014-Oct-29 17:33N 22°38' E 120°10'9 1.9
2014-Oct-29 12:33N 22°33' E 120°19'5 4.9
2014-Oct-29 11:33N 22°32' E 120°14'2 2.4
2014-Oct-29 10:31N 22°30' E 120°12'1 0.9
2014-Oct-29 09:33N 22°29' E 120°12'1 0.6
2014-Oct-29 08:32N 22°29' E 120°11'1 1.4
2014-Oct-29 07:28N 22°30' E 120°10'1 1.2
2014-Oct-29 06:33N 22°30' E 120°09'1 1.3
2014-Oct-29 05:33N 22°30' E 120°07'1212.1
2014-Oct-29 04:33N 22°27' E 119°54'321 6.5
2014-Oct-27 03:10N 22°20' E 114°08'1 0.3
2014-Oct-26 22:33N 22°19' E 114°06'16012.3
2014-Oct-26 09:33N 22°45' E 116°57'3115.7
2014-Oct-26 07:33N 23°01' E 117°27'1816.0
2014-Oct-26 06:27N 23°12' E 117°42'1415.6
2014-Oct-26 05:33N 23°21' E 117°53'2015.0
2014-Oct-26 04:14N 23°34' E 118°10'1213.9
2014-Oct-26 03:24N 23°43' E 118°18'1214.5
2014-Oct-26 02:33N 23°52' E 118°27'1312.8
2014-Oct-26 01:32N 24°00' E 118°38'1913.4
2014-Oct-26 00:09N 24°11' E 118°54'1014.1
2014-Oct-25 23:28N 24°17' E 119°02'1614.4
2014-Oct-25 22:23N 24°28' E 119°15'1714.2
2014-Oct-25 21:11N 24°39' E 119°29'914.1
2014-Oct-25 20:33N 24°45' E 119°36'1713.9
2014-Oct-25 19:21N 24°55' E 119°51'1313.9
2014-Oct-25 18:25N 25°04' E 120°02'  
Track history (hours):
 
Tides and Currents Weather Stations Pressure Air Temp Water Temp Dewpoint Dewpoint Depression Visibility Wind Speed Wind Dir Waves Ship Positions

YM Kaohsiung

Last reported at 2014-Oct-31 10:16 UTC. Time now 2014-Nov-01 10:31 UTC.
Position N 30°30' E 122°35'.

Length 260 m; draft 8.5 m.

Type: Cargo ship. MMSI: 235767000.

Date/timePositionNaut miles runAvg speedWind from/ knotsBaromVisibWave heightAir tempDewpointWater temp
2014-Oct-31 10:16N 30°30' E 122°35'2111.8
2014-Oct-31 08:26N 30°20' E 122°57'2713.1
2014-Oct-31 06:22N 29°53' E 122°57'1214.7
2014-Oct-31 05:32N 29°41' E 122°54'36712.6
2014-Oct-30 00:27N 24°08' E 119°59'4113.3
2014-Oct-29 21:20N 23°27' E 119°54'5213.7
2014-Oct-29 17:33N 22°38' E 120°10'9 1.9
2014-Oct-29 12:33N 22°33' E 120°19'5 4.9
2014-Oct-29 11:33N 22°32' E 120°14'2 2.4
2014-Oct-29 10:31N 22°30' E 120°12'1 0.9
2014-Oct-29 09:33N 22°29' E 120°12'1 0.6
2014-Oct-29 08:32N 22°29' E 120°11'1 1.4
2014-Oct-29 07:28N 22°30' E 120°10'1 1.2
2014-Oct-29 06:33N 22°30' E 120°09'1 1.3
2014-Oct-29 05:33N 22°30' E 120°07'1212.1
2014-Oct-29 04:33N 22°27' E 119°54'321 6.5
2014-Oct-27 03:10N 22°20' E 114°08'1 0.3
2014-Oct-26 22:33N 22°19' E 114°06'16012.3
2014-Oct-26 09:33N 22°45' E 116°57'3115.7
2014-Oct-26 07:33N 23°01' E 117°27'1816.0
2014-Oct-26 06:27N 23°12' E 117°42'1415.6
2014-Oct-26 05:33N 23°21' E 117°53'2015.0
2014-Oct-26 04:14N 23°34' E 118°10'1213.9
2014-Oct-26 03:24N 23°43' E 118°18'1214.5
2014-Oct-26 02:33N 23°52' E 118°27'1312.8
2014-Oct-26 01:32N 24°00' E 118°38'1913.4
2014-Oct-26 00:09N 24°11' E 118°54'1014.1
2014-Oct-25 23:28N 24°17' E 119°02'1614.4
2014-Oct-25 22:23N 24°28' E 119°15'1714.2
2014-Oct-25 21:11N 24°39' E 119°29'914.1
2014-Oct-25 20:33N 24°45' E 119°36'1713.9
2014-Oct-25 19:21N 24°55' E 119°51'1313.9
2014-Oct-25 18:25N 25°04' E 120°02'  

Dump ship's entire track history